This is the latest recevied weather packets stored in our database for station/object KC5EZZ-2. If no packets are shown the sender has not sent any weather packets the latest 10 day(s).
| Time | Temp. | Humidity | Pressure | Rain* | Wind** | Luminosity | Snow |
|---|---|---|---|---|---|---|---|
| 1777386389 | 25.56° C | - | - | 0 mm | 2.24 m/s, 194° | - | - |
| 1777386090 | 25° C | - | - | 0 mm | 2.68 m/s, 184° | - | - |
| 1777385790 | 25° C | - | - | 0 mm | 3.13 m/s, 229° | - | - |
| 1777385488 | 25° C | - | - | 0 mm | 3.13 m/s, 228° | - | - |
| 1777385189 | 24.44° C | - | - | 0 mm | 2.24 m/s, 203° | - | - |
| 1777384889 | 25° C | - | - | 0 mm | 3.13 m/s, 256° | - | - |
| 1777384587 | 25° C | - | - | 0 mm | 3.58 m/s, 253° | - | - |
| 1777384287 | 25° C | - | - | 0 mm | 2.24 m/s, 214° | - | - |
| 1777383987 | 25° C | - | - | 0 mm | 1.79 m/s, 226° | - | - |
| 1777383685 | 25° C | - | - | 0 mm | 1.34 m/s, 228° | - | - |
| 1777383391 | 25° C | - | - | 0 mm | 0.89 m/s, 246° | - | - |
| 1777383386 | 25° C | - | - | 0 mm | 0.89 m/s, 246° | - | - |
| 1777383086 | 25° C | - | - | 0 mm | 2.68 m/s, 195° | - | - |
| 1777382783 | 25° C | - | - | 0 mm | 1.79 m/s, 186° | - | - |
| 1777382484 | 25° C | - | - | 0 mm | 2.24 m/s, 193° | - | - |
| 1777382184 | 25° C | - | - | 0 mm | 1.34 m/s, 159° | - | - |
| 1777381882 | 25° C | - | - | 0 mm | 0 m/s | - | - |
| 1777381582 | 24.44° C | - | - | 0 mm | 1.79 m/s, 166° | - | - |
| 1777381283 | 24.44° C | - | - | 0 mm | 0 m/s | - | - |
| 1777381267 | 24.44° C | - | - | 0 mm | 2.24 m/s, 167° | - | - |
| 1777380980 | 24.44° C | - | - | 0 mm | 1.34 m/s, 173° | - | - |
| 1777380681 | 24.44° C | - | - | 0 mm | 2.24 m/s, 167° | - | - |
| 1777380079 | 24.44° C | - | - | 0 mm | 2.68 m/s, 179° | - | - |
| 1777379779 | 24.44° C | - | - | 0 mm | 0.89 m/s, 179° | - | - |
| 1777379480 | 24.44° C | - | - | 0 mm | 1.79 m/s, 166° | - | - |
* Rain latest hour (hover to see other rain measurements)
** Current wind speed in m/s (hover to see current wind gust speed)